EN

Hourly Weather Almancil

Today, 18 January, Monday

Time Temperature Precipitation Wind Pressure Humidity
00:00 +8°C° 0 mm 2 mps 765 mmHg 63%
01:00 +7°C° 0 mm 2 mps 764 mmHg 65%
02:00 +7°C° 0 mm 2 mps 764 mmHg 68%
03:00 +7°C° 0 mm 2 mps 764 mmHg 66%
04:00 +7°C° 0 mm 2 mps 764 mmHg 65%
05:00 +7°C° 0 mm 2 mps 764 mmHg 64%
06:00 +8°C° 0 mm 2 mps 764 mmHg 64%
07:00 +9°C° 0 mm 2 mps 764 mmHg 64%
08:00 +10°C° 0 mm 2 mps 764 mmHg 64%
09:00 +12°C° 0 mm 2 mps 765 mmHg 59%
10:00 +13°C° 0 mm 3 mps 765 mmHg 55%
11:00 +16°C° 0 mm 2 mps 765 mmHg 49%
12:00 +16°C° 0 mm 2 mps 764 mmHg 50%
13:00 +17°C° 0 mm 2 mps 764 mmHg 51%
14:00 +17°C° 0 mm 2 mps 763 mmHg 52%
15:00 +14°C° 0 mm 2 mps 764 mmHg 63%
16:00 +12°C° 0 mm 2 mps 764 mmHg 75%
17:00 +10°C° 0 mm 1 mps 764 mmHg 86%
18:00 +9°C° 0 mm 1 mps 764 mmHg 87%
19:00 +9°C° 0 mm 1 mps 764 mmHg 88%
20:00 +9°C° 0 mm 1 mps 764 mmHg 89%
21:00 +9°C° 0 mm 1 mps 765 mmHg 90%
22:00 +9°C° 0 mm 1 mps 765 mmHg 91%
23:00 +9°C° 0 mm 1 mps 765 mmHg 92%

Tomorrow, 19 January, Tuesday

Time Temperature Precipitation Wind Pressure Humidity
00:00 +9°C° 0 mm 1 mps 764 mmHg 93%
01:00 +8°C° 0 mm 2 mps 764 mmHg 94%
02:00 +8°C° 0 mm 2 mps 763 mmHg 95%
03:00 +8°C° 0 mm 2 mps 763 mmHg 95%
04:00 +8°C° 0 mm 2 mps 763 mmHg 95%
05:00 +8°C° 0 mm 2 mps 763 mmHg 96%
06:00 +9°C° 0 mm 2 mps 763 mmHg 94%
07:00 +10°C° 0 mm 2 mps 763 mmHg 92%
08:00 +12°C° 0 mm 2 mps 763 mmHg 90%
09:00 +12°C° 0 mm 3 mps 763 mmHg 84%
10:00 +13°C° 0 mm 4 mps 763 mmHg 78%
11:00 +14°C° 0 mm 4 mps 763 mmHg 72%
12:00 +15°C° 0 mm 4 mps 763 mmHg 71%
13:00 +15°C° 0 mm 4 mps 762 mmHg 70%
14:00 +15°C° 0 mm 4 mps 761 mmHg 69%
15:00 +14°C° 0 mm 4 mps 761 mmHg 75%
16:00 +13°C° 0 mm 4 mps 761 mmHg 80%
17:00 +11°C° 0 mm 4 mps 761 mmHg 86%
18:00 +12°C° 0 mm 4 mps 760 mmHg 85%
19:00 +12°C° 0 mm 5 mps 760 mmHg 84%
20:00 +11°C° 0 mm 6 mps 760 mmHg 84%
21:00 +11°C° 0 mm 6 mps 760 mmHg 83%
22:00 +11°C° 0 mm 7 mps 759 mmHg 83%
23:00 +12°C° 0 mm 7 mps 759 mmHg 83%

Day after tomorrow, 20 January, Wednesday

Time Temperature Precipitation Wind Pressure Humidity
00:00 +12°C° 0.1 mm 8 mps 758 mmHg 83%
01:00 +12°C° 0.1 mm 8 mps 757 mmHg 84%
02:00 +12°C° 0.1 mm 9 mps 756 mmHg 84%
03:00 +12°C° 1 mm 10 mps 756 mmHg 88%
04:00 +12°C° 1 mm 11 mps 755 mmHg 91%
05:00 +12°C° 1 mm 11 mps 755 mmHg 94%
06:00 +12°C° 3.6 mm 11 mps 754 mmHg 93%
07:00 +13°C° 3.6 mm 10 mps 754 mmHg 93%
08:00 +13°C° 3.6 mm 9 mps 754 mmHg 92%
09:00 +15°C° 0.3 mm 9 mps 754 mmHg 86%
10:00 +15°C° 0.3 mm 9 mps 755 mmHg 80%
11:00 +16°C° 0.3 mm 9 mps 755 mmHg 73%
12:00 +16°C° 0.1 mm 9 mps 755 mmHg 72%
13:00 +15°C° 0.1 mm 9 mps 754 mmHg 70%
14:00 +15°C° 0.1 mm 9 mps 754 mmHg 68%
15:00 +13°C° 0.1 mm 9 mps 755 mmHg 74%
16:00 +12°C° 0.1 mm 8 mps 755 mmHg 80%
17:00 +11°C° 0.1 mm 7 mps 756 mmHg 86%
18:00 +11°C° 0.1 mm 7 mps 756 mmHg 88%
19:00 +11°C° 0.1 mm 7 mps 757 mmHg 89%
20:00 +11°C° 0.1 mm 7 mps 757 mmHg 91%
21:00 +10°C° 0 mm 6 mps 758 mmHg 92%
22:00 +10°C° 0 mm 6 mps 758 mmHg 93%
23:00 +10°C° 0 mm 6 mps 758 mmHg 94%

21 January, Thursday

Time Temperature Precipitation Wind Pressure Humidity
00:00 +10°C° 0 mm 6 mps 758 mmHg 94%
01:00 +10°C° 0 mm 5 mps 758 mmHg 94%
02:00 +10°C° 0 mm 5 mps 758 mmHg 94%
03:00 +10°C° 0 mm 5 mps 759 mmHg 94%
04:00 +10°C° 0 mm 5 mps 759 mmHg 94%
05:00 +10°C° 0 mm 5 mps 759 mmHg 95%
06:00 +11°C° 0.1 mm 6 mps 759 mmHg 94%
07:00 +12°C° 0.1 mm 7 mps 759 mmHg 94%
08:00 +14°C° 0.1 mm 7 mps 759 mmHg 94%
09:00 +13°C° 0.1 mm 8 mps 760 mmHg 90%
10:00 +15°C° 0.1 mm 9 mps 760 mmHg 86%
11:00 +16°C° 0.1 mm 9 mps 760 mmHg 83%
12:00 +16°C° 0.1 mm 9 mps 759 mmHg 84%
13:00 +15°C° 0.1 mm 9 mps 759 mmHg 86%
14:00 +15°C° 0.1 mm 9 mps 758 mmHg 87%
15:00 +15°C° 0.2 mm 9 mps 758 mmHg 89%
16:00 +15°C° 0.2 mm 8 mps 758 mmHg 92%
17:00 +15°C° 0.2 mm 8 mps 758 mmHg 94%
18:00 +14°C° 0.2 mm 6 mps 759 mmHg 95%
19:00 +13°C° 0.2 mm 5 mps 759 mmHg 96%
20:00 +13°C° 0.2 mm 4 mps 759 mmHg 96%
21:00 +12°C° 0 mm 4 mps 759 mmHg 96%
22:00 +12°C° 0 mm 4 mps 759 mmHg 96%
23:00 +11°C° 0 mm 3 mps 759 mmHg 96%

22 January, Friday

Time Temperature Precipitation Wind Pressure Humidity
00:00 +11°C° 0 mm 4 mps 759 mmHg 97%
01:00 +11°C° 0 mm 4 mps 759 mmHg 97%
02:00 +11°C° 0 mm 4 mps 759 mmHg 98%
03:00 +12°C° 0 mm 5 mps 759 mmHg 97%
04:00 +12°C° 0 mm 5 mps 759 mmHg 97%
05:00 +13°C° 0 mm 6 mps 759 mmHg 96%
06:00 +12°C° 0 mm 7 mps 759 mmHg 95%
07:00 +14°C° 0 mm 7 mps 760 mmHg 94%
08:00 +13°C° 0 mm 8 mps 760 mmHg 93%
09:00 +15°C° 0.1 mm 8 mps 760 mmHg 87%
10:00 +16°C° 0.1 mm 9 mps 761 mmHg 81%
11:00 +16°C° 0.1 mm 10 mps 761 mmHg 75%
12:00 +16°C° 0 mm 9 mps 761 mmHg 70%
13:00 +15°C° 0 mm 8 mps 761 mmHg 65%
14:00 +15°C° 0 mm 8 mps 760 mmHg 61%
15:00 +14°C° 0 mm 7 mps 761 mmHg 67%
16:00 +11°C° 0 mm 6 mps 762 mmHg 73%
17:00 +10°C° 0 mm 5 mps 762 mmHg 79%
18:00 +10°C° 0 mm 4 mps 763 mmHg 82%
19:00 +10°C° 0 mm 3 mps 763 mmHg 85%
20:00 +9°C° 0 mm 3 mps 764 mmHg 88%
21:00 +9°C° 0 mm 2 mps 764 mmHg 88%
22:00 +8°C° 0 mm 2 mps 764 mmHg 89%
23:00 +9°C° 0 mm 1 mps 764 mmHg 89%

23 January, Saturday

Time Temperature Precipitation Wind Pressure Humidity
00:00 +9°C° 0 mm 1 mps 764 mmHg 89%
01:00 +9°C° 0 mm 1 mps 764 mmHg 89%
02:00 +9°C° 0 mm 1 mps 763 mmHg 88%
03:00 +8°C° 0 mm 1 mps 763 mmHg 89%
04:00 +8°C° 0 mm 1 mps 763 mmHg 89%
05:00 +8°C° 0 mm 1 mps 763 mmHg 90%
06:00 +9°C° 0 mm 1 mps 763 mmHg 87%
07:00 +10°C° 0 mm 1 mps 763 mmHg 85%
08:00 +11°C° 0 mm 1 mps 764 mmHg 82%
09:00 +13°C° 0 mm 2 mps 764 mmHg 78%
10:00 +13°C° 0 mm 3 mps 763 mmHg 74%
11:00 +16°C° 0 mm 3 mps 763 mmHg 70%
12:00 +15°C° 0 mm 4 mps 763 mmHg 70%
13:00 +15°C° 0 mm 5 mps 762 mmHg 70%
14:00 +16°C° 0 mm 6 mps 762 mmHg 70%
15:00 +14°C° 0 mm 5 mps 762 mmHg 76%
16:00 +13°C° 0 mm 5 mps 762 mmHg 83%
17:00 +12°C° 0 mm 5 mps 761 mmHg 90%
18:00 +12°C° 0 mm 5 mps 762 mmHg 92%
19:00 +12°C° 0 mm 5 mps 762 mmHg 94%
20:00 +12°C° 0 mm 5 mps 762 mmHg 96%
21:00 +12°C° 0 mm 5 mps 762 mmHg 96%
22:00 +12°C° 0 mm 5 mps 762 mmHg 97%
23:00 +13°C° 0 mm 4 mps 762 mmHg 97%
Show more